2015-03-13 00:00:54 r, 19.57m,0000000002Hz,0000367337c,0000000.797s, 017.7C,00002191
2015-03-13 00:10:55 r, 19.75m,0000000001Hz,0000433905c,0000000.942s, 017.7C,00002191
2015-03-13 00:20:56 r, 19.80m,0000000001Hz,0000452025c,0000000.981s, 018.0C,00002191
2015-03-13 00:30:55 r, 20.04m,0000000001Hz,0000565305c,0000001.227s, 017.7C,00002191
2015-03-13 00:40:55 r, 19.86m,0000000001Hz,0000478036c,0000001.037s, 017.7C,00002191
2015-03-13 00:50:56 r, 19.65m,0000000001Hz,0000394507c,0000000.856s, 017.4C,00002191
2015-03-13 01:00:54 r, 20.02m,0000000000Hz,0000555604c,0000001.206s, 017.4C,00002191
2015-03-13 01:10:54 r, 20.55m,0000000001Hz,0000896815c,0000001.946s, 017.0C,00002191
2015-03-13 01:20:55 r, 20.74m,0000000000Hz,0001072145c,0000002.327s, 016.7C,00002191
2015-03-13 01:30:55 r, 20.76m,0000000001Hz,0001089503c,0000002.364s, 016.1C,00002191
2015-03-13 01:40:54 r, 20.38m,0000000000Hz,0000770807c,0000001.673s, 015.7C,00002191
2015-03-13 01:50:55 r, 20.18m,0000000001Hz,0000646099c,0000001.402s, 015.4C,00002191
2015-03-13 02:00:55 r, 19.96m,0000000000Hz,0000528102c,0000001.146s, 015.4C,00002191
2015-03-13 02:10:55 r, 19.60m,0000000001Hz,0000378250c,0000000.821s, 015.7C,00002191
2015-03-13 02:20:55 r, 19.45m,0000000001Hz,0000328376c,0000000.713s, 016.1C,00002191
2015-03-13 02:30:55 r, 19.65m,0000000001Hz,0000396669c,0000000.861s, 016.1C,00002191
2015-03-13 02:40:55 r, 19.61m,0000000002Hz,0000379124c,0000000.823s, 016.1C,00002191
2015-03-13 02:50:54 r, 19.54m,0000000002Hz,0000356960c,0000000.775s, 016.1C,00002191
2015-03-13 03:00:55 r, 19.37m,0000000002Hz,0000303408c,0000000.658s, 016.1C,00002191
2015-03-13 03:10:55 r, 19.51m,0000000001Hz,0000346490c,0000000.752s, 015.7C,00002191
2015-03-13 03:20:56 r, 19.44m,0000000002Hz,0000327314c,0000000.710s, 015.4C,00002191
2015-03-13 03:30:54 r, 19.37m,0000000002Hz,0000306179c,0000000.664s, 015.4C,00002191
2015-03-13 03:40:54 r, 19.50m,0000000002Hz,0000344440c,0000000.747s, 015.1C,00002191
2015-03-13 03:50:56 r, 19.42m,0000000001Hz,0000318715c,0000000.692s, 015.1C,00002191
2015-03-13 04:00:55 r, 19.48m,0000000001Hz,0000339761c,0000000.737s, 014.8C,00002191
2015-03-13 04:10:54 r, 19.30m,0000000002Hz,0000285159c,0000000.619s, 014.8C,00002191
2015-03-13 04:20:54 r, 19.34m,0000000002Hz,0000296534c,0000000.644s, 014.8C,00002191
2015-03-13 04:30:55 r, 19.31m,0000000001Hz,0000289062c,0000000.627s, 014.5C,00002191
2015-03-13 04:40:55 r, 19.11m,0000000001Hz,0000239082c,0000000.519s, 014.5C,00002191
2015-03-13 04:50:54 r, 18.92m,0000000002Hz,0000202725c,0000000.440s, 014.5C,00002191
2015-03-13 05:00:54 r, 19.24m,0000000001Hz,0000271776c,0000000.590s, 014.5C,00002191
2015-03-13 05:10:54 r, 19.26m,0000000001Hz,0000275479c,0000000.598s, 014.1C,00002191
2015-03-13 05:20:54 r, 19.34m,0000000002Hz,0000295679c,0000000.642s, 014.1C,00002191
2015-03-13 05:30:54 r, 19.37m,0000000001Hz,0000305346c,0000000.663s, 014.5C,00002191
2015-03-13 05:40:54 r, 19.17m,0000000002Hz,0000253391c,0000000.550s, 014.5C,00002191
2015-03-13 05:50:54 r, 19.11m,0000000002Hz,0000239132c,0000000.519s, 014.5C,00002191
2015-03-13 06:00:54 r, 18.93m,0000000002Hz,0000204662c,0000000.444s, 014.8C,00002191
2015-03-13 06:10:54 r, 19.12m,0000000002Hz,0000241720c,0000000.525s, 014.5C,00002191
2015-03-13 06:20:54 r, 19.23m,0000000002Hz,0000268779c,0000000.583s, 014.5C,00002191
2015-03-13 06:30:54 r, 19.28m,0000000002Hz,0000281167c,0000000.610s, 014.5C,00002191
2015-03-13 06:40:54 r, 19.08m,0000000002Hz,0000234288c,0000000.508s, 014.1C,00002191
2015-03-13 06:50:54 r, 18.59m,0000000004Hz,0000149675c,0000000.325s, 014.1C,00002191
2015-03-13 07:00:56 r, 17.02m,0000000013Hz,0000035398c,0000000.077s, 013.8C,00002191
2015-03-13 07:10:55 r, 14.95m,0000000086Hz,0000005247c,0000000.011s, 013.8C,00002191
2015-03-13 07:20:55 r, 12.74m,0000000681Hz,0000000000c,0000000.000s, 013.8C,00002191
2015-03-13 07:30:56 r, 10.61m,0000004839Hz,0000000000c,0000000.000s, 013.8C,00002191
2015-03-13 07:40:54 r, 08.22m,0000043691Hz,0000000000c,0000000.000s, 013.8C,00002191
2015-03-13 07:50:54 r, 07.16m,0000115577Hz,0000000000c,0000000.000s, 013.8C,00002191
2015-03-13 08:00:55 r, 06.29m,0000258316Hz,0000000000c,0000000.000s, 013.8C,00002191
2015-03-13 08:10:54 r, 00.00m,0000513028Hz,0000000000c,0000000.000s, 013.8C,00002191
2015-03-13 08:20:54 r, 00.00m,0000595662Hz,0000000000c,0000000.000s, 013.8C,00002191
2015-03-13 08:30:55 r, 00.00m,0000595582Hz,0000000000c,0000000.000s, 014.1C,00002191
2015-03-13 08:40:55 r, 00.00m,0000595591Hz,0000000000c,0000000.000s, 014.1C,00002191
2015-03-13 08:50:54 r, 00.00m,0000595493Hz,0000000000c,0000000.000s, 014.5C,00002191
2015-03-13 09:00:56 r, 00.00m,0000595480Hz,0000000000c,0000000.000s, 014.8C,00002191
2015-03-13 09:10:55 r, 00.00m,0000595555Hz,0000000000c,0000000.000s, 015.1C,00002191
2015-03-13 09:20:54 r, 00.00m,0000595420Hz,0000000000c,0000000.000s, 015.7C,00002191
2015-03-13 09:30:55 r, 00.00m,0000595371Hz,0000000000c,0000000.000s, 016.1C,00002191
2015-03-13 09:40:55 r, 00.00m,0000595403Hz,0000000000c,0000000.000s, 016.1C,00002191
2015-03-13 09:50:55 r, 00.00m,0000595436Hz,0000000000c,0000000.000s, 016.4C,00002191
2015-03-13 10:00:54 r, 00.00m,0000595371Hz,0000000000c,0000000.000s, 016.7C,00002191
2015-03-13 10:10:54 r, 00.00m,0000595337Hz,0000000000c,0000000.000s, 017.0C,00002191
2015-03-13 10:20:54 r, 00.00m,0000595378Hz,0000000000c,0000000.000s, 017.4C,00002191
2015-03-13 10:30:56 r, 00.00m,0000595316Hz,0000000000c,0000000.000s, 017.4C,00002191
2015-03-13 10:40:55 r, 00.00m,0000595284Hz,0000000000c,0000000.000s, 017.7C,00002191
2015-03-13 10:50:54 r, 00.00m,0000595312Hz,0000000000c,0000000.000s, 017.4C,00002191
2015-03-13 11:00:56 r, 00.00m,0000595251Hz,0000000000c,0000000.000s, 017.4C,00002191
2015-03-13 11:10:54 r, 00.00m,0000595239Hz,0000000000c,0000000.000s, 017.0C,00002191
2015-03-13 11:20:55 r, 00.00m,0000595326Hz,0000000000c,0000000.000s, 017.0C,00002191
2015-03-13 11:30:55 r, 00.00m,0000595350Hz,0000000000c,0000000.000s, 016.7C,00002191
2015-03-13 11:40:54 r, 00.00m,0000595368Hz,0000000000c,0000000.000s, 016.7C,00002191
2015-03-13 11:50:54 r, 00.00m,0000595345Hz,0000000000c,0000000.000s, 017.4C,00002191
2015-03-13 12:00:55 r, 00.00m,0000595355Hz,0000000000c,0000000.000s, 017.4C,00002191
2015-03-13 12:10:54 r, 00.00m,0000595296Hz,0000000000c,0000000.000s, 017.7C,00002191
2015-03-13 12:20:54 r, 00.00m,0000595278Hz,0000000000c,0000000.000s, 018.0C,00002191
2015-03-13 12:30:56 r, 00.00m,0000595228Hz,0000000000c,0000000.000s, 018.3C,00002191
2015-03-13 12:40:54 r, 00.00m,0000595204Hz,0000000000c,0000000.000s, 018.0C,00002191
2015-03-13 12:50:55 r, 00.00m,0000595204Hz,0000000000c,0000000.000s, 018.3C,00002191
2015-03-13 13:00:55 r, 00.00m,0000595180Hz,0000000000c,0000000.000s, 019.0C,00002191
2015-03-13 13:10:55 r, 00.00m,0000595128Hz,0000000000c,0000000.000s, 019.6C,00002191
2015-03-13 13:20:54 r, 00.00m,0000595199Hz,0000000000c,0000000.000s, 019.3C,00002191
2015-03-13 13:30:56 r, 00.00m,0000595167Hz,0000000000c,0000000.000s, 019.9C,00002191
2015-03-13 13:40:54 r, 00.00m,0000595178Hz,0000000000c,0000000.000s, 019.9C,00002191
2015-03-13 13:50:54 r, 00.00m,0000595011Hz,0000000000c,0000000.000s, 020.6C,00002191
2015-03-13 14:00:56 r, 00.00m,0000595013Hz,0000000000c,0000000.000s, 021.2C,00002191
2015-03-13 14:10:54 r, 00.00m,0000594933Hz,0000000000c,0000000.000s, 021.9C,00002191
2015-03-13 14:20:54 r, 00.00m,0000594847Hz,0000000000c,0000000.000s, 022.2C,00002191
2015-03-13 14:30:55 r, 00.00m,0000594764Hz,0000000000c,0000000.000s, 022.5C,00002191
2015-03-13 14:40:54 r, 00.00m,0000594732Hz,0000000000c,0000000.000s, 022.8C,00002191
2015-03-13 14:50:55 r, 00.00m,0000594817Hz,0000000000c,0000000.000s, 023.2C,00002191
2015-03-13 15:00:56 r, 00.00m,0000594712Hz,0000000000c,0000000.000s, 023.5C,00002191
2015-03-13 15:10:54 r, 00.00m,0000594668Hz,0000000000c,0000000.000s, 023.8C,00002191
2015-03-13 15:20:54 r, 00.00m,0000594543Hz,0000000000c,0000000.000s, 025.1C,00002191
2015-03-13 15:30:54 r, 00.00m,0000594387Hz,0000000000c,0000000.000s, 026.4C,00002191
2015-03-13 15:40:55 r, 00.00m,0000594394Hz,0000000000c,0000000.000s, 026.7C,00002191
2015-03-13 15:50:55 r, 00.00m,0000594364Hz,0000000000c,0000000.000s, 027.0C,00002191
2015-03-13 16:00:54 r, 00.00m,0000594331Hz,0000000000c,0000000.000s, 027.3C,00002191
2015-03-13 16:10:55 r, 00.00m,0000594375Hz,0000000000c,0000000.000s, 027.3C,00002191
2015-03-13 16:20:54 r, 00.00m,0000594414Hz,0000000000c,0000000.000s, 027.0C,00002191
2015-03-13 16:30:55 r, 00.00m,0000594484Hz,0000000000c,0000000.000s, 027.0C,00002191
2015-03-13 16:40:55 r, 00.00m,0000594398Hz,0000000000c,0000000.000s, 027.0C,00002191
2015-03-13 16:50:54 r, 00.00m,0000594414Hz,0000000000c,0000000.000s, 026.7C,00002191
2015-03-13 17:00:55 r, 00.00m,0000594435Hz,0000000000c,0000000.000s, 026.7C,00002191
2015-03-13 17:10:54 r, 00.00m,0000594567Hz,0000000000c,0000000.000s, 026.4C,00002191
2015-03-13 17:20:54 r, 00.00m,0000594475Hz,0000000000c,0000000.000s, 026.1C,00002191
2015-03-13 17:30:55 r, 00.00m,0000594533Hz,0000000000c,0000000.000s, 025.7C,00002191
2015-03-13 17:40:54 r, 00.00m,0000594639Hz,0000000000c,0000000.000s, 025.1C,00002191
2015-03-13 17:50:54 r, 00.00m,0000594752Hz,0000000000c,0000000.000s, 024.8C,00002191
2015-03-13 18:00:55 r, 00.00m,0000594737Hz,0000000000c,0000000.000s, 024.8C,00002191
2015-03-13 18:10:54 r, 00.00m,0000594725Hz,0000000000c,0000000.000s, 024.4C,00002191
2015-03-13 18:20:54 r, 00.00m,0000594868Hz,0000000000c,0000000.000s, 023.8C,00002191
2015-03-13 18:30:55 r, 00.00m,0000594980Hz,0000000000c,0000000.000s, 023.5C,00002191
2015-03-13 18:40:55 r, 00.00m,0000583717Hz,0000000000c,0000000.000s, 022.5C,00002191
2015-03-13 18:50:54 r, 00.00m,0000487300Hz,0000000000c,0000000.000s, 021.9C,00002191
2015-03-13 19:00:55 r, 05.88m,0000375812Hz,0000000000c,0000000.000s, 020.9C,00002191
2015-03-13 19:10:54 r, 06.25m,0000266655Hz,0000000000c,0000000.000s, 019.9C,00002191
2015-03-13 19:20:54 r, 06.81m,0000158900Hz,0000000000c,0000000.000s, 019.0C,00002191
2015-03-13 19:30:55 r, 07.69m,0000071021Hz,0000000000c,0000000.000s, 018.3C,00002191
2015-03-13 19:40:55 r, 09.05m,0000020374Hz,0000000000c,0000000.000s, 017.4C,00002191
2015-03-13 19:50:54 r, 10.92m,0000003602Hz,0000000000c,0000000.000s, 016.7C,00002191
2015-03-13 20:00:54 r, 13.09m,0000000491Hz,0000000000c,0000000.000s, 016.4C,00002191
2015-03-13 20:10:55 r, 15.29m,0000000065Hz,0000007158c,0000000.016s, 015.7C,00002191
2015-03-13 20:20:55 r, 17.11m,0000000012Hz,0000038249c,0000000.083s, 015.4C,00002191
2015-03-13 20:30:55 r, 18.61m,0000000003Hz,0000151736c,0000000.329s, 015.1C,00002191
2015-03-13 20:40:54 r, 19.78m,0000000001Hz,0000445258c,0000000.966s, 014.8C,00002191
2015-03-13 20:50:54 r, 20.44m,0000000000Hz,0000808306c,0000001.754s, 014.5C,00002191
2015-03-13 21:00:55 r, 20.66m,0000000000Hz,0000994558c,0000002.158s, 014.5C,00002191
2015-03-13 21:10:54 r, 20.72m,0000000001Hz,0001049935c,0000002.279s, 014.1C,00002191
2015-03-13 21:20:54 r, 20.73m,0000000001Hz,0001062083c,0000002.305s, 013.8C,00002191
2015-03-13 21:30:56 r, 20.75m,0000000000Hz,0001076626c,0000002.336s, 013.5C,00002191
2015-03-13 21:40:55 r, 20.76m,0000000000Hz,0001092160c,0000002.370s, 013.5C,00002191
2015-03-13 21:50:54 r, 20.77m,0000000000Hz,0001098079c,0000002.383s, 013.2C,00002191
2015-03-13 22:00:57 r, 20.78m,0000000000Hz,0001108374c,0000002.405s, 013.2C,00002191
2015-03-13 22:10:54 r, 20.80m,0000000001Hz,0001126942c,0000002.446s, 012.8C,00002191
2015-03-13 22:20:54 r, 20.80m,0000000001Hz,0001133920c,0000002.461s, 012.8C,00002191
2015-03-13 22:30:54 r, 20.81m,0000000001Hz,0001140249c,0000002.474s, 012.8C,00002191
2015-03-13 22:40:54 r, 20.81m,0000000001Hz,0001145447c,0000002.486s, 012.8C,00002191
2015-03-13 22:50:55 r, 20.83m,0000000000Hz,0001155549c,0000002.508s, 012.8C,00002191
2015-03-13 23:00:54 r, 20.83m,0000000000Hz,0001166089c,0000002.531s, 013.2C,00002191
2015-03-13 23:10:55 r, 20.85m,0000000000Hz,0001181473c,0000002.564s, 013.5C,00002191
2015-03-13 23:20:54 r, 20.86m,0000000001Hz,0001190347c,0000002.583s, 013.5C,00002191
2015-03-13 23:30:55 r, 20.88m,0000000001Hz,0001215638c,0000002.638s, 013.5C,00002191
2015-03-13 23:40:54 r, 20.89m,0000000000Hz,0001222451c,0000002.653s, 013.5C,00002191
2015-03-13 23:50:55 r, 20.89m,0000000000Hz,0001226739c,0000002.662s, 013.5C,00002191
